{"data":{"norad_id":69189,"intl_designator":"2026-114H","name":"STARLINK-37440","alt_names":[],"object_type":"PAYLOAD","status":"ACTIVE","operator":null,"country":"US","launch_date":"2026-05-25","launch_site_code":"AFETR","launch_vehicle":null,"mission":null,"orbit_class":"UNKNOWN","rcs_meters":null,"size_class":null,"mass_kg":null,"dimensions":null,"purposes":["comms"],"wikipedia_slug":null,"has_3d_model":false,"image_url":null,"decayed_at":null,"tle_current":{"epoch":"2026-09-19T23:29:08.093760Z","epoch_age_seconds":72063,"freshness":"FRESH","line1":"1 69189U 26114H   26262.97856590  .00013748  00000+0  41718-3 0  9990","line2":"2 69189  53.1581 116.3382 0001282  88.6958 271.4191 15.34407792 19365","mean_motion":15.34407792,"eccentricity":0.0001282,"inclination_deg":53.1581,"raan_deg":116.3382,"arg_perigee_deg":88.6958,"mean_anomaly_deg":271.4191,"bstar":0.00041718,"rev_number":1936,"period_min":93.847281505463,"perigee_km":461.80308808926,"apogee_km":463.55707358879,"semimajor_km":6840.817080839,"source":"CELESTRAK","updated_at":"2026-09-20T09:00:44.096949Z"}}}